| time (UTC) | temp F | wind direction | speed MPH | gust MPH | rain 1hr in | rain 24hr in | rain mn in | humidity % | barometer mb |
| 20260508035832 | 53 | 262 | 1.0 | 2.0 | 0.00 | 0.35 | 1.27 | 99 | 1012.0 |
| 20260508035227 | 53 | 342 | 1.0 | 2.0 | 0.00 | 0.35 | 1.27 | 99 | 1011.9 |
| 20260508034727 | 53 | 343 | 1.0 | 2.0 | 0.00 | 0.35 | 1.27 | 99 | 1011.9 |
| 20260508034226 | 53 | 266 | 0.0 | 3.0 | 0.00 | 0.35 | 1.27 | 99 | 1011.8 |
| 20260508033727 | 53 | 330 | 1.0 | 3.0 | 0.00 | 0.35 | 1.27 | 99 | 1011.6 |
| 20260508033711 | 53 | 301 | 2.0 | 2.0 | 0.00 | 0.35 | 1.27 | 99 | 1011.7 |
| 20260508033331 | 53 | 301 | 2.0 | 2.0 | 0.00 | 0.35 | 1.27 | 99 | 1011.7 |
| 20260508032728 | 53 | 0 | 2.0 | 2.0 | 0.00 | 0.35 | 1.27 | 100 | 1011.1 |
| 20260508032214 | 53 | 358 | 1.0 | 2.0 | 0.00 | 0.35 | 1.27 | 99 | 1011.6 |
| 20260508031656 | 53 | 73 | 1.0 | 2.0 | 0.00 | 0.35 | 1.27 | 99 | 1011.7 |
| 20260508031156 | 53 | 349 | 1.0 | 2.0 | 0.00 | 0.35 | 1.27 | 99 | 1011.7 |
| 20260508030659 | 53 | 331 | 1.0 | 2.0 | 0.00 | 0.35 | 1.27 | 99 | 1011.4 |
| 20260508030200 | 53 | 336 | 1.0 | 2.0 | 0.00 | 0.35 | 1.27 | 99 | 1011.4 |
| 20260508025918 | 53 | 345 | 1.0 | 2.0 | 0.00 | 0.35 | 1.27 | 99 | 1011.3 |
| 20260508025802 | 53 | 345 | 1.0 | 2.0 | 0.00 | 0.35 | 1.27 | 99 | 1011.3 |
| 20260508025156 | 53 | 342 | 1.0 | 2.0 | 0.00 | 0.35 | 1.27 | 99 | 1011.3 |
| 20260508024657 | 53 | 4 | 1.0 | 2.0 | 0.00 | 0.35 | 1.27 | 99 | 1011.3 |
| 20260508024156 | 53 | 16 | 1.0 | 2.0 | 0.00 | 0.35 | 1.27 | 99 | 1011.2 |
| 20260508023700 | 53 | 342 | 1.0 | 2.0 | 0.00 | 0.35 | 1.27 | 99 | 1011.2 |
| 20260508023200 | 53 | 331 | 1.0 | 2.0 | 0.00 | 0.35 | 1.27 | 99 | 1011.2 |
| 20260508022911 | 53 | 354 | 1.0 | 2.0 | 0.00 | 0.35 | 1.27 | 99 | 1011.1 |
| 20260508022748 | 53 | 354 | 1.0 | 2.0 | 0.00 | 0.35 | 1.27 | 99 | 1011.1 |
| 20260508022144 | 53 | 350 | 2.0 | 2.0 | 0.00 | 0.35 | 1.27 | 99 | 1011.2 |
| 20260508021913 | 53 | 350 | 1.0 | 2.0 | 0.00 | 0.35 | 1.27 | 99 | 1011.3 |
| 20260508021749 | 53 | 350 | 1.0 | 2.0 | 0.00 | 0.35 | 1.27 | 99 | 1011.3 |
| 20260508021144 | 53 | 69 | 1.0 | 2.0 | 0.00 | 0.35 | 1.27 | 99 | 1011.3 |
| 20260508020644 | 53 | 359 | 0.0 | 2.0 | 0.00 | 0.35 | 1.27 | 99 | 1011.1 |
| 20260508020144 | 53 | 308 | 0.0 | 1.0 | 0.00 | 0.35 | 1.27 | 99 | 1011.1 |
| 20260508015912 | 53 | 0 | 0.0 | 1.0 | 0.01 | 0.35 | 1.27 | 99 | 1011.0 |
| 20260508015748 | 53 | 0 | 0.0 | 1.0 | 0.01 | 0.35 | 1.27 | 99 | 1011.0 |
| 20260508015144 | 53 | 0 | 1.0 | 1.0 | 0.05 | 0.35 | 1.27 | 99 | 1011.0 |
| 20260508014644 | 53 | 266 | 1.0 | 2.0 | 0.09 | 0.35 | 1.27 | 99 | 1010.8 |
| 20260508014144 | 53 | 335 | 1.0 | 2.0 | 0.10 | 0.35 | 1.27 | 99 | 1010.6 |
| 20260508013644 | 53 | 353 | 1.0 | 2.0 | 0.13 | 0.35 | 1.27 | 98 | 1010.4 |
| 20260508013145 | 53 | 324 | 1.0 | 1.0 | 0.22 | 0.35 | 1.27 | 98 | 1010.5 |
| 20260508012630 | 53 | 347 | 1.0 | 2.0 | 0.22 | 0.35 | 1.27 | 98 | 1010.5 |
| 20260508012114 | 53 | 329 | 1.0 | 2.0 | 0.22 | 0.35 | 1.27 | 98 | 1010.4 |
| 20260508011900 | 53 | 358 | 1.0 | 2.0 | 0.22 | 0.35 | 1.27 | 98 | 1010.2 |
| 20260508011720 | 53 | 358 | 1.0 | 2.0 | 0.22 | 0.35 | 1.27 | 98 | 1010.2 |
| 20260508011342 | 53 | 51 | 1.0 | 2.0 | 0.22 | 0.35 | 1.27 | 98 | 1010.3 |
| 20260508011222 | 53 | 51 | 1.0 | 2.0 | 0.22 | 0.35 | 1.27 | 98 | 1010.3 |
| 20260508010617 | 53 | 0 | 1.0 | 2.0 | 0.22 | 0.35 | 1.27 | 97 | 1010.5 |
| 20260508010334 | 53 | 344 | 1.0 | 2.0 | 0.22 | 0.35 | 1.27 | 97 | 1010.4 |
| 20260508010222 | 53 | 344 | 1.0 | 2.0 | 0.22 | 0.35 | 1.27 | 97 | 1010.4 |
| 20260508005617 | 53 | 348 | 1.0 | 2.0 | 0.21 | 0.35 | 1.26 | 97 | 1010.6 |
| 20260508005339 | 53 | 358 | 1.0 | 2.0 | 0.17 | 0.31 | 1.22 | 97 | 1010.8 |
| 20260508005220 | 53 | 358 | 1.0 | 2.0 | 0.17 | 0.31 | 1.22 | 97 | 1010.8 |
| 20260508004614 | 53 | 341 | 1.0 | 2.0 | 0.13 | 0.27 | 1.19 | 96 | 1010.8 |
| 20260508004115 | 53 | 0 | 1.0 | 2.0 | 0.11 | 0.25 | 1.17 | 96 | 1010.8 |
| 20260508003615 | 54 | 262 | 1.0 | 2.0 | 0.08 | 0.22 | 1.14 | 95 | 1010.2 |
| 20260508003059 | 54 | 326 | 1.0 | 2.0 | 0.00 | 0.14 | 1.06 | 95 | 1010.0 |
| 20260508002601 | 54 | 351 | 2.0 | 5.0 | 0.00 | 0.14 | 1.06 | 94 | 1009.6 |
| 20260508002116 | 54 | 353 | 2.0 | 5.0 | 0.00 | 0.14 | 1.06 | 94 | 1009.3 |
| 20260508001604 | 54 | 13 | 2.0 | 4.0 | 0.00 | 0.14 | 1.06 | 95 | 1009.3 |
| 20260508001102 | 54 | 15 | 2.0 | 4.0 | 0.00 | 0.14 | 1.06 | 95 | 1009.3 |
| 20260508000604 | 54 | 38 | 2.0 | 3.0 | 0.00 | 0.14 | 1.06 | 95 | 1009.3 |
| 20260507235829 | 54 | 71 | 2.0 | 3.0 | 0.00 | 0.14 | 1.06 | 96 | 1009.3 |
| 20260507235708 | 54 | 71 | 2.0 | 3.0 | 0.00 | 0.14 | 1.06 | 96 | 1009.3 |
| 20260507235103 | 54 | 3 | 2.0 | 3.0 | 0.00 | 0.14 | 1.06 | 96 | 1009.2 |
| 20260507234605 | 54 | 348 | 2.0 | 3.0 | 0.00 | 0.14 | 1.06 | 96 | 1009.3 |
| 20260507234059 | 54 | 348 | 2.0 | 3.0 | 0.00 | 0.14 | 1.06 | 96 | 1009.4 |
| 20260507233824 | 54 | 354 | 2.0 | 2.0 | 0.00 | 0.14 | 1.06 | 96 | 1009.4 |
| 20260507233706 | 54 | 354 | 2.0 | 2.0 | 0.00 | 0.14 | 1.06 | 96 | 1009.4 |
| 20260507233046 | 54 | 348 | 2.0 | 2.0 | 0.00 | 0.14 | 1.06 | 96 | 1009.4 |
| 20260507232548 | 54 | 1 | 2.0 | 3.0 | 0.00 | 0.14 | 1.06 | 96 | 1009.5 |
| 20260507232046 | 54 | 359 | 2.0 | 3.0 | 0.00 | 0.14 | 1.06 | 96 | 1009.4 |
| 20260507231548 | 54 | 358 | 2.0 | 3.0 | 0.00 | 0.14 | 1.06 | 96 | 1009.3 |
| 20260507231047 | 54 | 11 | 2.0 | 3.0 | 0.00 | 0.14 | 1.06 | 97 | 1009.1 |
| 20260507230548 | 54 | 28 | 2.0 | 3.0 | 0.00 | 0.14 | 1.06 | 97 | 1009.0 |
| 20260507230100 | 54 | 13 | 2.0 | 3.0 | 0.00 | 0.14 | 1.06 | 97 | 1009.0 |
| 20260507225548 | 54 | 358 | 2.0 | 4.0 | 0.00 | 0.14 | 1.06 | 97 | 1008.9 |
| 20260507225047 | 54 | 5 | 2.0 | 4.0 | 0.00 | 0.14 | 1.06 | 98 | 1008.9 |
| 20260507224806 | 54 | 3 | 2.0 | 3.0 | 0.00 | 0.14 | 1.06 | 98 | 1008.8 |
| 20260507224653 | 54 | 3 | 2.0 | 3.0 | 0.00 | 0.14 | 1.06 | 98 | 1008.8 |
| 20260507224048 | 54 | 28 | 2.0 | 4.0 | 0.00 | 0.14 | 1.06 | 98 | 1008.7 |
| 20260507223533 | 54 | 353 | 2.0 | 4.0 | 0.00 | 0.14 | 1.06 | 98 | 1008.8 |
| 20260507223033 | 54 | 19 | 2.0 | 4.0 | 0.00 | 0.14 | 1.06 | 98 | 1008.7 |
| 20260507222532 | 54 | 344 | 2.0 | 3.0 | 0.00 | 0.14 | 1.06 | 98 | 1008.8 |
| 20260507222033 | 54 | 16 | 2.0 | 4.0 | 0.00 | 0.14 | 1.06 | 98 | 1008.8 |
| 20260507221533 | 54 | 357 | 2.0 | 4.0 | 0.00 | 0.14 | 1.06 | 98 | 1009.0 |
| 20260507221033 | 54 | 350 | 2.0 | 3.0 | 0.00 | 0.14 | 1.06 | 98 | 1008.9 |
| 20260507220533 | 54 | 66 | 2.0 | 3.0 | 0.00 | 0.14 | 1.06 | 98 | 1008.7 |
| 20260507220046 | 54 | 3 | 2.0 | 3.0 | 0.00 | 0.14 | 1.06 | 98 | 1008.8 |
| 20260507215533 | 54 | 350 | 2.0 | 6.0 | 0.00 | 0.14 | 1.06 | 98 | 1008.5 |
| 20260507215032 | 54 | 354 | 3.0 | 6.0 | 0.01 | 0.14 | 1.06 | 98 | 1008.5 |
| 20260507214532 | 54 | 4 | 3.0 | 5.0 | 0.02 | 0.14 | 1.06 | 99 | 1008.5 |
| 20260507214034 | 54 | 2 | 3.0 | 5.0 | 0.02 | 0.14 | 1.06 | 99 | 1008.4 |
| 20260507213532 | 55 | 8 | 3.0 | 5.0 | 0.03 | 0.14 | 1.06 | 99 | 1008.5 |
| 20260507213303 | 55 | 356 | 3.0 | 7.0 | 0.04 | 0.14 | 1.06 | 99 | 1008.5 |
| 20260507213138 | 55 | 356 | 3.0 | 7.0 | 0.04 | 0.14 | 1.06 | 99 | 1008.5 |
| 20260507212541 | 55 | 333 | 3.0 | 7.0 | 0.05 | 0.14 | 1.06 | 99 | 1008.3 |
| 20260507212020 | 56 | 21 | 3.0 | 5.0 | 0.06 | 0.14 | 1.06 | 99 | 1008.1 |
| 20260507211519 | 56 | 356 | 3.0 | 4.0 | 0.07 | 0.14 | 1.06 | 99 | 1008.1 |
| 20260507211002 | 56 | 328 | 3.0 | 5.0 | 0.08 | 0.14 | 1.06 | 99 | 1008.1 |
| 20260507210504 | 56 | 345 | 3.0 | 6.0 | 0.09 | 0.13 | 1.06 | 99 | 1007.9 |
| 20260507205950 | 57 | 342 | 3.0 | 6.0 | 0.09 | 0.13 | 1.05 | 99 | 1007.9 |
| 20260507205451 | 57 | 338 | 3.0 | 6.0 | 0.10 | 0.13 | 1.05 | 99 | 1007.8 |
| 20260507204950 | 57 | 11 | 3.0 | 7.0 | 0.09 | 0.13 | 1.04 | 98 | 1007.9 |
| 20260507204451 | 57 | 188 | 3.0 | 7.0 | 0.09 | 0.12 | 1.04 | 98 | 1007.9 |
| 20260507203952 | 58 | 334 | 3.0 | 7.0 | 0.08 | 0.11 | 1.03 | 98 | 1007.5 |
| 20260507203449 | 58 | 347 | 2.0 | 4.0 | 0.07 | 0.11 | 1.02 | 98 | 1007.5 |
| 20260507202949 | 58 | 42 | 1.0 | 2.0 | 0.06 | 0.09 | 1.01 | 98 | 1007.5 |
| 20260507202705 | 58 | 45 | 2.0 | 10.0 | 0.05 | 0.08 | 1.00 | 98 | 1007.5 |
| 20260507202554 | 58 | 45 | 2.0 | 10.0 | 0.05 | 0.08 | 1.00 | 98 | 1007.5 |
| 20260507202156 | 58 | 45 | 4.0 | 10.0 | 0.04 | 0.07 | 0.99 | 98 | 1007.2 |
| 20260507202044 | 58 | 45 | 4.0 | 10.0 | 0.04 | 0.07 | 0.99 | 98 | 1007.2 |
| 20260507201439 | 59 | 39 | 5.0 | 10.0 | 0.04 | 0.07 | 0.98 | 98 | 1007.3 |
| 20260507200935 | 59 | 35 | 4.0 | 8.0 | 0.02 | 0.06 | 0.97 | 98 | 1007.4 |
| 20260507200445 | 59 | 24 | 3.0 | 7.0 | 0.01 | 0.04 | 0.96 | 98 | 1007.4 |
| 20260507195936 | 59 | 6 | 3.0 | 9.0 | 0.01 | 0.04 | 0.96 | 98 | 1007.5 |
| 20260507195433 | 60 | 1 | 4.0 | 11.0 | 0.02 | 0.04 | 0.95 | 98 | 1007.6 |
| 20260507194934 | 60 | 30 | 4.0 | 16.0 | 0.01 | 0.03 | 0.95 | 98 | 1007.4 |
| 20260507194659 | 60 | 29 | 4.0 | 16.0 | 0.01 | 0.03 | 0.95 | 98 | 1007.3 |
| 20260507194538 | 60 | 29 | 4.0 | 16.0 | 0.01 | 0.03 | 0.95 | 98 | 1007.3 |
| 20260507193935 | 60 | 18 | 2.0 | 4.0 | 0.01 | 0.03 | 0.95 | 98 | 1007.3 |
| 20260507193434 | 60 | 20 | 2.0 | 7.0 | 0.01 | 0.03 | 0.95 | 98 | 1007.3 |
| 20260507193151 | 60 | 347 | 2.0 | 7.0 | 0.01 | 0.03 | 0.95 | 98 | 1007.5 |
| 20260507193036 | 60 | 347 | 2.0 | 7.0 | 0.01 | 0.03 | 0.95 | 98 | 1007.5 |
| 20260507192434 | 61 | 31 | 2.0 | 7.0 | 0.01 | 0.03 | 0.95 | 98 | 1007.3 |
| 20260507192154 | 61 | 3 | 2.0 | 4.0 | 0.01 | 0.03 | 0.95 | 98 | 1007.2 |
| 20260507192038 | 61 | 3 | 2.0 | 4.0 | 0.01 | 0.03 | 0.95 | 98 | 1007.2 |
| 20260507191434 | 62 | 352 | 2.0 | 3.0 | 0.01 | 0.03 | 0.95 | 98 | 1006.8 |
| 20260507190934 | 62 | 356 | 2.0 | 3.0 | 0.01 | 0.03 | 0.95 | 97 | 1006.6 |
| 20260507190421 | 62 | 335 | 2.0 | 3.0 | 0.01 | 0.03 | 0.95 | 97 | 1006.6 |
| 20260507185920 | 62 | 4 | 1.0 | 2.0 | 0.01 | 0.03 | 0.95 | 97 | 1006.8 |
| 20260507185420 | 62 | 29 | 1.0 | 2.0 | 0.00 | 0.02 | 0.94 | 96 | 1007.0 |
| 20260507184907 | 63 | 36 | 1.0 | 2.0 | 0.00 | 0.02 | 0.94 | 96 | 1007.4 |
| 20260507184408 | 64 | 303 | 1.0 | 2.0 | 0.00 | 0.02 | 0.94 | 95 | 1007.3 |
| 20260507183904 | 65 | 11 | 1.0 | 3.0 | 0.00 | 0.02 | 0.94 | 94 | 1006.9 |
| 20260507183407 | 66 | 66 | 2.0 | 4.0 | 0.00 | 0.02 | 0.94 | 94 | 1006.6 |
| 20260507182907 | 69 | 64 | 2.0 | 4.0 | 0.00 | 0.02 | 0.94 | 92 | 1006.7 |
| 20260507182848 | 71 | 27 | 1.0 | 3.0 | 0.00 | 0.02 | 0.94 | 96 | 1006.6 |
| 20260507182513 | 71 | 27 | 1.0 | 3.0 | 0.00 | 0.02 | 0.94 | 96 | 1006.6 |
| 20260507181908 | 71 | 49 | 1.0 | 2.0 | 0.01 | 0.02 | 0.94 | 97 | 1006.5 |
| 20260507181408 | 70 | 74 | 1.0 | 2.0 | 0.01 | 0.02 | 0.94 | 96 | 1006.7 |
| 20260507180908 | 70 | 78 | 1.0 | 2.0 | 0.01 | 0.02 | 0.94 | 97 | 1006.8 |
| 20260507180633 | 70 | 239 | 1.0 | 3.0 | 0.01 | 0.02 | 0.94 | 96 | 1006.8 |
| 20260507180512 | 70 | 239 | 1.0 | 3.0 | 0.01 | 0.02 | 0.94 | 96 | 1006.8 |
| 20260507175907 | 70 | 69 | 1.0 | 3.0 | 0.01 | 0.02 | 0.94 | 96 | 1006.7 |
| 20260507175405 | 70 | 138 | 2.0 | 3.0 | 0.01 | 0.02 | 0.94 | 96 | 1006.7 |
| 20260507175113 | 70 | 178 | 1.0 | 3.0 | 0.01 | 0.02 | 0.94 | 97 | 1006.5 |
| 20260507174957 | 70 | 178 | 1.0 | 3.0 | 0.01 | 0.02 | 0.94 | 97 | 1006.5 |
| 20260507174351 | 70 | 0 | 2.0 | 5.0 | 0.01 | 0.02 | 0.94 | 97 | 1006.6 |
| 20260507173836 | 70 | 179 | 3.0 | 7.0 | 0.01 | 0.02 | 0.94 | 97 | 1006.4 |
| 20260507173323 | 70 | 223 | 3.0 | 7.0 | 0.01 | 0.02 | 0.94 | 97 | 1006.4 |
| 20260507172824 | 69 | 178 | 2.0 | 7.0 | 0.01 | 0.02 | 0.94 | 97 | 1006.5 |
| 20260507172322 | 69 | 178 | 2.0 | 5.0 | 0.01 | 0.02 | 0.93 | 97 | 1006.6 |
| 20260507171822 | 69 | 172 | 2.0 | 5.0 | 0.01 | 0.01 | 0.93 | 97 | 1006.6 |
| 20260507171322 | 69 | 177 | 1.0 | 3.0 | 0.01 | 0.01 | 0.93 | 98 | 1006.8 |
| 20260507170823 | 69 | 200 | 1.0 | 3.0 | 0.00 | 0.01 | 0.93 | 98 | 1007.0 |
| 20260507170322 | 69 | 0 | 1.0 | 2.0 | 0.00 | 0.01 | 0.93 | 98 | 1007.3 |
| 20260507165806 | 69 | 111 | 2.0 | 5.0 | 0.00 | 0.01 | 0.93 | 98 | 1007.5 |
| 20260507165306 | 69 | 209 | 2.0 | 5.0 | 0.01 | 0.01 | 0.93 | 98 | 1007.7 |
| 20260507165027 | 69 | 91 | 1.0 | 3.0 | 0.01 | 0.01 | 0.93 | 98 | 1007.8 |
| 20260507164911 | 69 | 91 | 1.0 | 3.0 | 0.01 | 0.01 | 0.93 | 98 | 1007.8 |
| 20260507164307 | 69 | 45 | 1.0 | 4.0 | 0.01 | 0.01 | 0.93 | 98 | 1007.8 |
| 20260507163819 | 69 | 235 | 1.0 | 4.0 | 0.01 | 0.01 | 0.93 | 98 | 1007.9 |
| 20260507163307 | 69 | 180 | 1.0 | 3.0 | 0.01 | 0.01 | 0.93 | 98 | 1007.9 |
| 20260507162811 | 69 | 58 | 1.0 | 3.0 | 0.01 | 0.01 | 0.93 | 99 | 1008.0 |
| 20260507162307 | 69 | 269 | 1.0 | 2.0 | 0.00 | 0.00 | 0.92 | 99 | 1008.1 |
| 20260507161808 | 69 | 210 | 1.0 | 3.0 | 0.00 | 0.00 | 0.92 | 99 | 1008.0 |
| 20260507161307 | 68 | 0 | 1.0 | 3.0 | 0.00 | 0.00 | 0.92 | 99 | 1008.1 |
| 20260507160754 | 68 | 151 | 2.0 | 4.0 | 0.00 | 0.00 | 0.92 | 99 | 1008.0 |
| 20260507160253 | 68 | 220 | 2.0 | 4.0 | 0.00 | 0.00 | 0.92 | 99 | 1008.0 |
| 20260507160022 | 68 | 214 | 2.0 | 4.0 | 0.00 | 0.00 | 0.92 | 99 | 1007.8 |
| 20260507155900 | 68 | 214 | 2.0 | 4.0 | 0.00 | 0.00 | 0.92 | 99 | 1007.8 |
| 20260507155239 | 68 | 201 | 1.0 | 2.0 | 0.00 | 0.00 | 0.92 | 99 | 1007.8 |
| 20260507154741 | 67 | 136 | 0.0 | 0.0 | 0.00 | 0.00 | 0.92 | 99 | 1007.7 |
| 20260507154138 | 67 | 125 | 1.0 | 4.0 | 0.20 | 0.93 | 0.92 | 99 | 1007.8 |
| 20260507153641 | 67 | 241 | 1.0 | 2.0 | 0.20 | 0.92 | 0.90 | 99 | 1007.9 |
| 20260507153138 | 67 | 60 | 2.0 | 7.0 | 0.20 | 0.91 | 0.89 | 99 | 1008.1 |
| 20260507152638 | 67 | 84 | 4.0 | 9.0 | 0.20 | 0.90 | 0.89 | 99 | 1008.1 |
| 20260507152138 | 67 | 53 | 5.0 | 10.0 | 0.20 | 0.89 | 0.88 | 99 | 1008.1 |
| 20260507151638 | 67 | 133 | 5.0 | 10.0 | 0.19 | 0.89 | 0.87 | 99 | 1008.2 |
| 20260507151138 | 67 | 149 | 4.0 | 9.0 | 0.17 | 0.87 | 0.85 | 99 | 1008.3 |
| 20260507150639 | 67 | 136 | 2.0 | 7.0 | 0.16 | 0.85 | 0.84 | 99 | 1008.5 |
| 20260507150139 | 67 | 194 | 2.0 | 5.0 | 0.13 | 0.83 | 0.81 | 99 | 1008.7 |
| 20260507145858 | 67 | 58 | 2.0 | 5.0 | 0.11 | 0.80 | 0.79 | 99 | 1008.6 |
| 20260507145743 | 67 | 58 | 2.0 | 5.0 | 0.11 | 0.80 | 0.79 | 99 | 1008.6 |
| 20260507145128 | 67 | 151 | 2.0 | 4.0 | 0.09 | 0.79 | 0.77 | 100 | 1008.6 |
| 20260507144628 | 68 | 222 | 2.0 | 4.0 | 0.06 | 0.76 | 0.74 | 100 | 1008.6 |
| 20260507144128 | 68 | 118 | 1.0 | 2.0 | 0.04 | 0.74 | 0.72 | 100 | 1008.6 |
| 20260507143628 | 68 | 26 | 1.0 | 3.0 | 0.02 | 0.72 | 0.70 | 100 | 1008.5 |
| 20260507143125 | 68 | 105 | 2.0 | 3.0 | 0.01 | 0.71 | 0.69 | 100 | 1008.6 |
| 20260507142624 | 68 | 49 | 2.0 | 3.0 | 0.00 | 0.70 | 0.68 | 100 | 1008.5 |
| 20260507142125 | 68 | 133 | 2.0 | 4.0 | 0.00 | 0.70 | 0.68 | 100 | 1008.5 |
| 20260507141625 | 68 | 7 | 2.0 | 4.0 | 0.00 | 0.70 | 0.68 | 100 | 1008.5 |
| 20260507141125 | 68 | 107 | 1.0 | 2.0 | 0.00 | 0.70 | 0.68 | 100 | 1008.5 |
| 20260507140853 | 68 | 131 | 1.0 | 4.0 | 0.00 | 0.70 | 0.68 | 100 | 1008.5 |
| 20260507140730 | 68 | 131 | 1.0 | 4.0 | 0.00 | 0.70 | 0.68 | 100 | 1008.5 |
| 20260507140125 | 68 | 111 | 2.0 | 4.0 | 0.00 | 0.70 | 0.68 | 100 | 1008.7 |
| 20260507135609 | 68 | 148 | 2.0 | 4.0 | 0.00 | 0.70 | 0.68 | 100 | 1009.0 |
| 20260507135112 | 68 | 141 | 2.0 | 4.0 | 0.00 | 0.70 | 0.68 | 100 | 1008.8 |
| 20260507134612 | 68 | 71 | 1.0 | 2.0 | 0.00 | 0.70 | 0.68 | 100 | 1008.7 |
| 20260507134112 | 68 | 132 | 2.0 | 4.0 | 0.00 | 0.70 | 0.68 | 100 | 1008.5 |
| 20260507133612 | 68 | 137 | 2.0 | 4.0 | 0.00 | 0.70 | 0.68 | 100 | 1008.4 |
| 20260507133110 | 68 | 127 | 1.0 | 2.0 | 0.00 | 0.70 | 0.68 | 100 | 1008.6 |
| 20260507132609 | 68 | 340 | 1.0 | 3.0 | 0.00 | 0.70 | 0.68 | 100 | 1008.6 |
| 20260507132110 | 68 | 135 | 1.0 | 3.0 | 0.00 | 0.70 | 0.68 | 100 | 1008.5 |
| 20260507131609 | 68 | 167 | 1.0 | 4.0 | 0.00 | 0.70 | 0.68 | 100 | 1008.6 |
| 20260507131110 | 67 | 352 | 2.0 | 4.0 | 0.00 | 0.70 | 0.68 | 100 | 1008.5 |
| 20260507130610 | 67 | 109 | 2.0 | 5.0 | 0.00 | 0.70 | 0.68 | 100 | 1008.3 |
| 20260507130112 | 67 | 137 | 2.0 | 5.0 | 0.00 | 0.70 | 0.68 | 100 | 1008.4 |
| 20260507125736 | 67 | 169 | 2.0 | 4.0 | 0.00 | 0.70 | 0.68 | 99 | 1008.6 |
| 20260507125729 | 67 | 130 | 2.0 | 4.0 | 0.00 | 0.70 | 0.68 | 99 | 1008.8 |
| 20260507125707 | 67 | 96 | 2.0 | 5.0 | 0.00 | 0.70 | 0.68 | 99 | 1008.5 |
| 20260507125615 | 67 | 169 | 2.0 | 4.0 | 0.00 | 0.70 | 0.68 | 99 | 1008.6 |
| 20260507125419 | 67 | 104 | 2.0 | 5.0 | 0.00 | 0.70 | 0.68 | 99 | 1008.7 |
| 20260507125324 | 67 | 10 | 2.0 | 5.0 | 0.00 | 0.70 | 0.68 | 99 | 1008.7 |
| 20260507125234 | 67 | 130 | 2.0 | 4.0 | 0.00 | 0.70 | 0.68 | 99 | 1008.8 |
| 20260507123526 | 67 | 130 | 2.0 | 4.0 | 0.00 | 0.70 | 0.68 | 99 | 1008.8 |
| 20260507123027 | 67 | 143 | 2.0 | 4.0 | 0.00 | 0.70 | 0.68 | 99 | 1008.9 |
| 20260507122527 | 67 | 135 | 2.0 | 4.0 | 0.00 | 0.70 | 0.68 | 99 | 1008.9 |
| 20260507122028 | 67 | 157 | 2.0 | 4.0 | 0.00 | 0.70 | 0.68 | 99 | 1009.0 |
| 20260507121751 | 67 | 117 | 2.0 | 4.0 | 0.00 | 0.70 | 0.68 | 99 | 1009.0 |
| 20260507121632 | 67 | 117 | 2.0 | 4.0 | 0.00 | 0.70 | 0.68 | 99 | 1009.0 |
| 20260507121027 | 67 | 315 | 2.0 | 4.0 | 0.00 | 0.70 | 0.68 | 99 | 1009.0 |
| 20260507120540 | 67 | 149 | 2.0 | 4.0 | 0.00 | 0.70 | 0.68 | 99 | 1009.1 |
| 20260507120015 | 67 | 129 | 2.0 | 3.0 | 0.00 | 0.70 | 0.68 | 99 | 1009.3 |
| 20260507115514 | 67 | 99 | 2.0 | 3.0 | 0.00 | 0.70 | 0.68 | 99 | 1009.2 |
| 20260507115011 | 67 | 144 | 2.0 | 4.0 | 0.02 | 0.70 | 0.68 | 100 | 1009.4 |
| 20260507114735 | 67 | 138 | 3.0 | 5.0 | 0.02 | 0.70 | 0.68 | 99 | 1009.3 |
| 20260507114616 | 67 | 138 | 3.0 | 5.0 | 0.02 | 0.70 | 0.68 | 99 | 1009.3 |
| 20260507114012 | 66 | 141 | 2.0 | 5.0 | 0.03 | 0.70 | 0.68 | 100 | 1009.4 |
| 20260507113511 | 66 | 109 | 2.0 | 4.0 | 0.03 | 0.70 | 0.68 | 100 | 1009.4 |
| 20260507113011 | 66 | 151 | 2.0 | 4.0 | 0.03 | 0.70 | 0.68 | 100 | 1009.5 |
| 20260507112516 | 66 | 123 | 2.0 | 3.0 | 0.04 | 0.70 | 0.68 | 100 | 1009.5 |
| 20260507112011 | 66 | 135 | 2.0 | 4.0 | 0.04 | 0.70 | 0.68 | 100 | 1009.5 |
| 20260507111511 | 66 | 136 | 3.0 | 4.0 | 0.04 | 0.70 | 0.68 | 100 | 1009.5 |
| 20260507111014 | 66 | 160 | 2.0 | 4.0 | 0.05 | 0.70 | 0.68 | 100 | 1009.4 |
| 20260507110515 | 66 | 130 | 2.0 | 3.0 | 0.05 | 0.70 | 0.68 | 100 | 1009.4 |
| 20260507110057 | 66 | 108 | 3.0 | 5.0 | 0.03 | 0.67 | 0.65 | 100 | 1009.0 |
| 20260507110044 | 66 | 146 | 2.0 | 4.0 | 0.05 | 0.69 | 0.68 | 100 | 1009.3 |
| 20260507105954 | 66 | 103 | 2.0 | 4.0 | 0.04 | 0.69 | 0.67 | 100 | 1009.1 |
| 20260507105904 | 66 | 157 | 2.0 | 4.0 | 0.04 | 0.68 | 0.66 | 100 | 1009.1 |
| 20260507105710 | 66 | 171 | 2.0 | 4.0 | 0.03 | 0.67 | 0.65 | 100 | 1009.2 |
| 20260507103959 | 66 | 108 | 3.0 | 5.0 | 0.03 | 0.67 | 0.65 | 100 | 1009.0 |
| 20260507103459 | 66 | 159 | 2.0 | 5.0 | 0.04 | 0.67 | 0.65 | 100 | 1009.1 |
| 20260507103001 | 66 | 107 | 2.0 | 2.0 | 0.03 | 0.67 | 0.65 | 100 | 1009.3 |
| 20260507102502 | 66 | 132 | 2.0 | 3.0 | 0.03 | 0.66 | 0.65 | 100 | 1009.4 |
| 20260507102001 | 66 | 143 | 2.0 | 3.0 | 0.03 | 0.66 | 0.65 | 100 | 1009.2 |
| 20260507101502 | 66 | 168 | 2.0 | 4.0 | 0.02 | 0.65 | 0.64 | 100 | 1009.1 |
| 20260507101002 | 66 | 122 | 2.0 | 4.0 | 0.02 | 0.65 | 0.63 | 100 | 1009.1 |
| 20260507100447 | 66 | 142 | 2.0 | 5.0 | 0.03 | 0.65 | 0.63 | 100 | 1008.9 |
| 20260507095944 | 66 | 150 | 2.0 | 5.0 | 0.05 | 0.65 | 0.63 | 100 | 1008.9 |
| 20260507095448 | 66 | 146 | 2.0 | 5.0 | 0.09 | 0.65 | 0.63 | 100 | 1008.8 |
| 20260507094948 | 66 | 165 | 2.0 | 6.0 | 0.13 | 0.64 | 0.63 | 100 | 1008.9 |
| 20260507094444 | 66 | 189 | 3.0 | 7.0 | 0.15 | 0.64 | 0.63 | 100 | 1008.8 |
| 20260507093942 | 66 | 146 | 2.0 | 7.0 | 0.18 | 0.64 | 0.62 | 100 | 1008.8 |
| 20260507093444 | 66 | 155 | 2.0 | 4.0 | 0.19 | 0.63 | 0.62 | 100 | 1008.8 |
| 20260507092944 | 66 | 105 | 2.0 | 4.0 | 0.20 | 0.63 | 0.62 | 100 | 1009.0 |
| 20260507092443 | 66 | 159 | 2.0 | 4.0 | 0.20 | 0.63 | 0.62 | 100 | 1009.0 |
| 20260507091944 | 66 | 139 | 2.0 | 4.0 | 0.22 | 0.63 | 0.61 | 100 | 1009.0 |
| 20260507091443 | 66 | 319 | 1.0 | 3.0 | 0.23 | 0.63 | 0.61 | 100 | 1009.0 |
| 20260507090943 | 66 | 125 | 2.0 | 8.0 | 0.24 | 0.63 | 0.61 | 100 | 1009.0 |
| 20260507090437 | 66 | 167 | 2.0 | 8.0 | 0.24 | 0.62 | 0.60 | 100 | 1009.1 |
| 20260507085925 | 66 | 120 | 2.0 | 6.0 | 0.22 | 0.60 | 0.58 | 100 | 1009.2 |
| 20260507085426 | 66 | 193 | 2.0 | 6.0 | 0.19 | 0.56 | 0.54 | 100 | 1009.2 |
| 20260507084925 | 66 | 3 | 2.0 | 6.0 | 0.15 | 0.51 | 0.50 | 99 | 1009.4 |
| 20260507084426 | 66 | 183 | 2.0 | 5.0 | 0.14 | 0.49 | 0.48 | 99 | 1009.6 |
| 20260507083926 | 66 | 116 | 1.0 | 4.0 | 0.11 | 0.46 | 0.44 | 99 | 1009.7 |
| 20260507083425 | 66 | 153 | 1.0 | 4.0 | 0.09 | 0.44 | 0.43 | 99 | 1009.7 |
| 20260507082923 | 66 | 79 | 2.0 | 6.0 | 0.09 | 0.43 | 0.42 | 99 | 1009.7 |
| 20260507082423 | 66 | 157 | 1.0 | 6.0 | 0.08 | 0.43 | 0.41 | 99 | 1009.6 |
| 20260507081923 | 66 | 329 | 2.0 | 5.0 | 0.06 | 0.41 | 0.39 | 99 | 1009.6 |
| 20260507081423 | 66 | 181 | 2.0 | 5.0 | 0.06 | 0.40 | 0.39 | 99 | 1008.8 |
| 20260507080924 | 66 | 152 | 2.0 | 4.0 | 0.04 | 0.39 | 0.37 | 99 | 1009.4 |
| 20260507080423 | 66 | 186 | 1.0 | 3.0 | 0.04 | 0.38 | 0.37 | 99 | 1009.7 |
| 20260507075924 | 66 | 142 | 1.0 | 3.0 | 0.03 | 0.38 | 0.36 | 99 | 1009.8 |
| 20260507075424 | 66 | 0 | 1.0 | 3.0 | 0.02 | 0.37 | 0.35 | 99 | 1009.9 |
| 20260507074923 | 66 | 167 | 1.0 | 3.0 | 0.02 | 0.36 | 0.35 | 99 | 1010.0 |
| 20260507074424 | 66 | 151 | 1.0 | 3.0 | 0.01 | 0.35 | 0.34 | 99 | 1009.9 |
| 20260507073923 | 66 | 190 | 1.0 | 3.0 | 0.00 | 0.35 | 0.33 | 99 | 1009.6 |
| 20260507073423 | 66 | 113 | 1.0 | 2.0 | 0.00 | 0.35 | 0.33 | 99 | 1009.8 |
| 20260507072924 | 66 | 136 | 1.0 | 3.0 | 0.00 | 0.35 | 0.33 | 99 | 1010.1 |
| 20260507072424 | 66 | 207 | 2.0 | 3.0 | 0.00 | 0.35 | 0.33 | 99 | 1009.8 |
| 20260507072142 | 66 | 169 | 1.0 | 3.0 | 0.00 | 0.35 | 0.33 | 99 | 1009.8 |
| 20260507072023 | 66 | 169 | 1.0 | 3.0 | 0.00 | 0.35 | 0.33 | 99 | 1009.8 |
| 20260507071640 | 66 | 153 | 0.0 | 2.0 | 0.00 | 0.35 | 0.33 | 99 | 1010.1 |
| 20260507071524 | 66 | 153 | 0.0 | 2.0 | 0.00 | 0.35 | 0.33 | 99 | 1010.1 |
| 20260507070919 | 66 | 0 | 0.0 | 2.0 | 0.00 | 0.35 | 0.33 | 99 | 1010.4 |
| 20260507070418 | 66 | 190 | 0.0 | 2.0 | 0.00 | 0.35 | 0.33 | 99 | 1010.1 |
| 20260507065916 | 66 | 141 | 0.0 | 2.0 | 0.00 | 0.35 | 0.33 | 98 | 1010.1 |
| 20260507065417 | 66 | 0 | 0.0 | 2.0 | 0.00 | 0.35 | 0.33 | 98 | 1010.3 |
| 20260507064917 | 66 | 137 | 0.0 | 2.0 | 0.00 | 0.35 | 0.33 | 98 | 1010.3 |
| 20260507064419 | 66 | 0 | 0.0 | 3.0 | 0.00 | 0.35 | 0.33 | 98 | 1010.4 |
| 20260507063917 | 66 | 0 | 1.0 | 3.0 | 0.00 | 0.35 | 0.33 | 98 | 1010.5 |
| 20260507063417 | 66 | 195 | 1.0 | 3.0 | 0.01 | 0.35 | 0.33 | 98 | 1010.5 |
| 20260507063137 | 66 | 0 | 1.0 | 3.0 | 0.02 | 0.35 | 0.33 | 98 | 1010.7 |
| 20260507063021 | 66 | 0 | 1.0 | 3.0 | 0.02 | 0.35 | 0.33 | 98 | 1010.7 |
| 20260507062416 | 66 | 157 | 1.0 | 4.0 | 0.05 | 0.35 | 0.33 | 98 | 1011.1 |
| 20260507061915 | 66 | 0 | 1.0 | 4.0 | 0.09 | 0.35 | 0.33 | 98 | 1011.1 |
| 20260507061414 | 66 | 219 | 1.0 | 4.0 | 0.15 | 0.35 | 0.33 | 98 | 1010.8 |
| 20260507061139 | 67 | 210 | 1.0 | 2.0 | 0.20 | 0.35 | 0.33 | 98 | 1010.6 |
| 20260507061021 | 67 | 210 | 1.0 | 2.0 | 0.20 | 0.35 | 0.33 | 98 | 1010.6 |
| 20260507060414 | 67 | 190 | 0.0 | 2.0 | 0.26 | 0.35 | 0.33 | 98 | 1010.4 |
| 20260507055911 | 67 | 0 | 0.0 | 3.0 | 0.28 | 0.35 | 0.33 | 97 | 1010.5 |
| 20260507055639 | 67 | 0 | 1.0 | 4.0 | 0.30 | 0.35 | 0.33 | 97 | 1010.6 |
| 20260507055515 | 67 | 0 | 1.0 | 4.0 | 0.30 | 0.35 | 0.33 | 97 | 1010.6 |
| 20260507054912 | 67 | 148 | 2.0 | 4.0 | 0.31 | 0.35 | 0.33 | 97 | 1010.5 |
| 20260507054412 | 67 | 206 | 2.0 | 3.0 | 0.32 | 0.35 | 0.33 | 97 | 1010.3 |
| 20260507053912 | 67 | 169 | 2.0 | 7.0 | 0.31 | 0.34 | 0.33 | 97 | 1010.3 |
| 20260507053411 | 67 | 148 | 2.0 | 7.0 | 0.31 | 0.33 | 0.32 | 96 | 1010.0 |
| 20260507052909 | 67 | 123 | 0.0 | 3.0 | 0.29 | 0.32 | 0.30 | 96 | 1011.6 |
| 20260507052409 | 67 | 190 | 0.0 | 3.0 | 0.27 | 0.30 | 0.28 | 95 | 1012.2 |
| 20260507052127 | 67 | 0 | 0.0 | 3.0 | 0.23 | 0.25 | 0.24 | 94 | 1012.2 |
| 20260507052013 | 67 | 0 | 0.0 | 3.0 | 0.23 | 0.25 | 0.24 | 94 | 1012.2 |
| 20260507051408 | 67 | 247 | 1.0 | 4.0 | 0.17 | 0.19 | 0.18 | 94 | 1012.2 |
| 20260507051140 | 67 | 0 | 1.0 | 4.0 | 0.13 | 0.15 | 0.13 | 93 | 1012.3 |
| 20260507051014 | 67 | 0 | 1.0 | 4.0 | 0.13 | 0.15 | 0.13 | 93 | 1012.3 |
| 20260507050407 | 68 | 182 | 0.0 | 3.0 | 0.07 | 0.09 | 0.07 | 91 | 1012.5 |
| 20260507045906 | 68 | 0 | 0.0 | 2.0 | 0.05 | 0.06 | 0.05 | 89 | 1012.2 |
| 20260507045407 | 69 | 0 | 0.0 | 1.0 | 0.03 | 0.04 | 0.03 | 87 | 1012.1 |
| 20260507044907 | 69 | 91 | 0.0 | 2.0 | 0.02 | 0.03 | 0.02 | 85 | 1011.8 |
| 20260507044622 | 69 | 0 | 0.0 | 2.0 | 0.02 | 0.03 | 0.01 | 84 | 1011.7 |
| 20260507044511 | 69 | 0 | 0.0 | 2.0 | 0.02 | 0.03 | 0.01 | 84 | 1011.7 |
| 20260507043907 | 69 | 234 | 0.0 | 2.0 | 0.02 | 0.03 | 0.01 | 82 | 1011.5 |
| 20260507043408 | 70 | 153 | 0.0 | 2.0 | 0.02 | 0.03 | 0.01 | 82 | 1011.5 |
| 20260507042907 | 70 | 0 | 0.0 | 2.0 | 0.02 | 0.03 | 0.01 | 82 | 1011.7 |
| 20260507042407 | 71 | 0 | 0.0 | 3.0 | 0.02 | 0.03 | 0.01 | 80 | 1011.5 |
| 20260507042126 | 71 | 0 | 0.0 | 3.0 | 0.01 | 0.02 | 0.01 | 79 | 1011.6 |
| 20260507042012 | 71 | 0 | 0.0 | 3.0 | 0.01 | 0.02 | 0.01 | 79 | 1011.6 |
| 20260507041408 | 72 | 0 | 0.0 | 2.0 | 0.01 | 0.02 | 0.00 | 78 | 1011.8 |
| 20260507040904 | 72 | 237 | 1.0 | 5.0 | 0.01 | 0.02 | 0.00 | 76 | 1011.4 |
| 20260507040418 | 73 | 185 | 3.0 | 6.0 | 0.00 | 0.02 | 0.02 | 71 | 1010.9 |
| 20260507040407 | 73 | 0 | 2.0 | 6.0 | 0.01 | 0.02 | 0.00 | 74 | 1011.3 |
| 20260507040024 | 73 | 185 | 3.0 | 6.0 | 0.00 | 0.02 | 0.02 | 71 | 1010.9 |